Time[GMT],temperature[C](87m),salinity[psu](87m),sigma_t[kg/m^3](87m),conductivity[msiemens/cm](87m),attenuation[m-1](87m),transmissivity[percent](87m),transmissivity_voltage[transmissivity_voltage](87m)
2016-10-09 19:00,12.18,33.387,25.304,38.542,0.48,88.77,4.16
2016-10-09 20:00,12.23,33.355,25.269,38.555,0.13,96.77,4.53
2016-10-09 21:00,12.23,33.349,25.263,38.552,0.14,96.68,4.53
2016-10-09 22:00,12.23,33.365,25.276,38.571,0.11,97.34,4.56
2016-10-09 23:00,12.26,33.388,25.288,38.622,,,4.72
2016-10-10 00:00,16.00,,,,0.12,97.07,4.55
2016-10-10 01:00,12.12,33.327,25.268,38.426,0.21,94.94,4.45
2016-10-10 02:00,12.11,33.332,25.274,38.419,0.35,91.61,4.29
2016-10-10 03:00,12.11,33.320,25.265,38.407,0.33,92.15,4.32
2016-10-10 04:00,12.12,33.316,25.258,38.419,0.29,93.05,4.36
2016-10-10 05:00,12.12,33.316,25.258,38.417,0.26,93.72,4.39
2016-10-10 06:00,12.13,33.322,25.262,38.430,0.25,93.97,4.40
2016-10-10 07:00,12.15,33.309,25.248,38.437,0.24,94.10,4.41
2016-10-10 08:00,12.16,33.303,25.242,38.434,0.25,94.00,4.40
2016-10-10 09:00,12.15,33.301,25.242,38.430,0.36,91.35,4.28
2016-10-10 10:00,12.15,33.297,25.239,38.424,0.32,92.29,4.32
2016-10-10 11:00,12.15,33.295,25.238,38.417,0.35,91.64,4.29
2016-10-10 12:00,12.16,33.302,25.241,38.434,0.17,95.96,4.49
2016-10-10 13:00,12.16,33.309,25.247,38.441,0.21,94.86,4.44
2016-10-10 14:00,12.21,33.306,25.234,38.488,0.12,97.06,4.54
2016-10-10 15:00,12.19,33.283,25.220,38.445,0.17,95.92,4.49
2016-10-10 16:00,12.16,33.307,25.245,38.438,0.31,92.51,4.33
2016-10-10 17:00,12.25,33.289,25.214,38.506,0.09,97.69,4.57
2016-10-10 18:00,12.23,33.274,25.207,38.470,0.17,95.73,4.48
2016-10-10 19:00,12.22,33.279,25.212,38.466,0.18,95.49,4.47
2016-10-10 20:00,16.00,,,,0.29,93.04,4.36
2016-10-10 21:00,12.22,33.286,25.218,38.473,0.36,91.33,4.28
2016-10-10 22:00,12.20,33.285,25.220,38.455,0.35,91.73,4.30
2016-10-10 23:00,12.19,33.284,25.222,38.441,0.42,90.00,4.21
2016-10-11 00:00,16.00,,,,0.25,93.99,4.40
2016-10-11 01:00,12.23,33.230,25.172,38.428,0.48,88.76,4.16
2016-10-11 02:00,12.21,33.242,25.185,38.417,0.72,83.61,3.92
2016-10-11 03:00,12.20,33.270,25.209,38.438,0.56,86.87,4.07
2016-10-11 04:00,12.21,33.275,25.211,38.453,0.32,92.21,4.32
2016-10-11 05:00,12.19,33.275,25.213,38.440,0.50,88.29,4.13
2016-10-11 06:00,12.25,33.220,25.160,38.435,0.35,91.73,4.30
2016-10-11 07:00,12.25,33.220,25.160,38.435,0.39,90.76,4.25
2016-10-11 08:00,12.27,33.209,25.148,38.440,0.31,92.43,4.33
2016-10-11 09:00,12.29,33.196,25.133,38.450,0.23,94.45,4.42
2016-10-11 10:00,12.21,33.244,25.186,38.427,0.53,87.65,4.10
2016-10-11 11:00,12.24,33.227,25.168,38.429,0.48,88.64,4.15
2016-10-11 12:00,12.23,33.238,25.178,38.431,0.39,90.68,4.25
2016-10-11 13:00,12.18,33.272,25.213,38.425,0.43,89.86,4.21
2016-10-11 14:00,12.19,33.279,25.216,38.445,0.38,91.03,4.26
2016-10-11 15:00,12.21,33.276,25.212,38.453,0.54,87.41,4.09
2016-10-11 16:00,16.00,,,,0.47,89.01,4.17
2016-10-11 17:00,12.20,33.274,25.210,38.449,0.40,90.39,4.23
2016-10-11 18:00,12.18,33.281,25.220,38.437,0.53,87.52,4.10
2016-10-11 19:00,12.24,33.270,25.201,38.476,0.14,96.51,4.52
2016-10-11 20:00,12.20,33.288,25.222,38.460,0.38,90.99,4.26
2016-10-11 21:00,12.29,33.282,25.200,38.539,0.07,98.22,4.60
2016-10-11 22:00,12.29,33.295,25.211,38.552,0.11,97.25,4.55
2016-10-11 23:00,12.26,33.303,25.222,38.534,0.19,95.41,4.47
2016-10-12 00:00,12.28,33.301,25.217,38.549,0.14,96.44,4.52
2016-10-12 01:00,12.25,33.308,25.228,38.528,0.21,94.95,4.45
2016-10-12 02:00,12.33,33.298,25.206,38.586,0.06,98.55,4.61
2016-10-12 03:00,12.32,33.299,25.207,38.584,0.06,98.57,4.62
2016-10-12 04:00,12.29,33.291,25.207,38.549,0.12,97.13,4.55
2016-10-12 05:00,12.31,33.294,25.207,38.562,0.09,97.79,4.58
2016-10-12 06:00,12.27,33.302,25.219,38.543,0.23,94.35,4.42
2016-10-12 07:00,12.27,33.301,25.218,38.541,0.18,95.63,4.48
2016-10-12 08:00,12.28,33.305,25.220,38.552,0.19,95.25,4.46
2016-10-12 09:00,12.28,33.314,25.227,38.564,0.20,95.05,4.45
2016-10-12 10:00,12.32,33.321,25.224,38.608,0.15,96.32,4.51
2016-10-12 11:00,12.50,33.353,25.216,38.802,0.04,98.97,4.63
2016-10-12 12:00,12.54,33.374,25.223,38.866,0.04,99.01,4.64
2016-10-12 13:00,12.36,33.332,25.226,38.653,0.11,97.19,4.55
2016-10-12 14:00,12.32,33.310,25.217,38.590,0.12,97.13,4.55
2016-10-12 15:00,12.31,33.304,25.215,38.574,0.14,96.60,4.52
2016-10-12 16:00,12.30,33.298,25.211,38.562,0.19,95.41,4.47
2016-10-12 17:00,12.28,33.279,25.201,38.520,0.25,93.99,4.40
2016-10-12 18:00,12.25,33.239,25.174,38.457,0.27,93.47,4.38
2016-10-12 19:00,12.25,33.245,25.180,38.461,0.32,92.40,4.33
2016-10-12 20:00,12.25,33.228,25.166,38.447,0.21,94.78,4.44
2016-10-12 21:00,16.00,,,,0.14,96.56,4.52
2016-10-12 22:00,12.26,33.210,25.149,38.437,0.16,96.02,4.50
2016-10-12 23:00,12.26,33.253,25.184,38.477,0.32,92.38,4.33
2016-10-13 00:00,12.25,33.272,25.200,38.490,0.36,91.35,4.28
2016-10-13 01:00,12.26,33.221,25.160,38.441,0.40,90.39,4.23
2016-10-13 02:00,12.27,33.270,25.196,38.502,0.39,90.79,4.25
2016-10-13 03:00,12.26,33.214,25.154,38.438,0.23,94.48,4.42
2016-10-13 04:00,12.23,33.234,25.175,38.431,0.60,86.15,4.03
2016-10-13 05:00,12.22,33.262,25.199,38.451,0.38,90.88,4.26
2016-10-13 06:00,12.24,33.276,25.205,38.488,0.54,87.35,4.09
2016-10-13 07:00,12.26,33.281,25.207,38.503,0.53,87.57,4.10
2016-10-13 08:00,12.22,33.264,25.200,38.452,0.57,86.82,4.07
2016-10-13 09:00,12.22,33.264,25.200,38.455,0.52,87.71,4.11
2016-10-13 10:00,12.24,33.268,25.200,38.475,0.41,90.20,4.22
2016-10-13 11:00,12.25,33.272,25.201,38.485,0.42,90.11,4.22
2016-10-13 12:00,12.24,33.273,25.203,38.482,0.41,90.30,4.23
2016-10-13 13:00,12.24,33.273,25.204,38.479,0.41,90.19,4.22
2016-10-13 14:00,12.23,33.288,25.217,38.487,0.39,90.76,4.25
2016-10-13 15:00,12.28,33.218,25.152,38.462,0.05,98.74,4.62
2016-10-13 16:00,12.25,33.219,25.160,38.432,0.31,92.45,4.33
2016-10-13 17:00,12.24,33.216,25.158,38.425,0.71,83.83,3.93
2016-10-13 18:00,12.25,33.208,25.151,38.421,0.54,87.41,4.09
2016-10-13 19:00,12.22,33.286,25.218,38.473,0.75,82.81,3.88
2016-10-13 20:00,12.20,33.476,25.369,38.651,0.68,84.33,3.95
2016-10-13 21:00,12.16,33.441,25.348,38.584,0.78,82.19,3.85
2016-10-13 22:00,12.15,33.422,25.336,38.554,0.87,80.44,3.77
2016-10-13 23:00,12.22,33.308,25.235,38.495,0.55,87.22,4.08
2016-10-14 00:00,12.29,33.395,25.289,38.653,0.28,93.31,4.37
2016-10-14 01:00,12.31,33.412,25.298,38.687,0.22,94.58,4.43
2016-10-14 02:00,12.27,33.385,25.285,38.622,0.28,93.29,4.37
2016-10-14 03:00,12.26,33.353,25.261,38.583,0.36,91.44,4.28
2016-10-14 04:00,12.33,33.262,25.179,38.549,0.14,96.56,4.52
2016-10-14 05:00,12.33,33.277,25.189,38.570,0.14,96.51,4.52
2016-10-14 06:00,12.35,33.386,25.270,38.703,0.40,90.49,4.24
2016-10-14 07:00,12.37,33.430,25.300,38.762,0.43,89.85,4.21
2016-10-14 08:00,12.37,33.445,25.312,38.778,0.46,89.14,4.17
2016-10-14 09:00,12.35,33.452,25.320,38.772,0.41,90.26,4.23
2016-10-14 10:00,12.34,33.484,25.348,38.792,0.31,92.65,4.34
2016-10-14 11:00,12.36,33.490,25.349,38.816,0.25,93.88,4.40
2016-10-14 12:00,12.36,33.500,25.356,38.829,0.34,91.93,4.30
2016-10-14 13:00,12.35,33.429,25.304,38.743,0.25,93.93,4.40
2016-10-14 14:00,12.34,33.422,25.299,38.730,0.31,92.54,4.33
2016-10-14 15:00,12.37,33.399,25.276,38.733,0.16,96.08,4.50
2016-10-14 16:00,12.42,33.408,25.273,38.787,0.15,96.21,4.51
2016-10-14 17:00,12.38,33.434,25.302,38.774,0.84,81.05,3.80
2016-10-14 18:00,12.40,33.450,25.310,38.812,0.65,84.96,3.98
2016-10-14 19:00,12.40,33.479,25.332,38.844,0.69,84.17,3.94
2016-10-14 20:00,12.39,33.510,25.359,38.864,0.61,85.78,4.02
2016-10-14 21:00,16.00,,,,0.97,78.55,3.68
2016-10-14 22:00,12.41,33.458,25.314,38.833,0.41,90.19,4.22
2016-10-14 23:00,12.41,33.453,25.310,38.827,0.44,89.52,4.19
2016-10-15 00:00,12.42,33.451,25.308,38.829,0.39,90.81,4.25
2016-10-15 01:00,12.40,33.468,25.323,38.835,0.48,88.67,4.15
2016-10-15 02:00,12.41,33.496,25.344,38.872,0.36,91.41,4.28
2016-10-15 03:00,12.42,33.501,25.346,38.882,0.34,91.77,4.30
2016-10-15 04:00,12.42,33.533,25.371,38.917,0.42,89.95,4.21
2016-10-15 05:00,12.44,33.538,25.371,38.939,0.15,96.39,4.51
2016-10-15 06:00,12.42,33.567,25.397,38.955,0.16,96.10,4.50
2016-10-15 07:00,12.41,33.567,25.399,38.942,0.24,94.14,4.41
2016-10-15 08:00,12.42,33.488,25.336,38.869,0.31,92.51,4.33
2016-10-15 09:00,12.41,33.448,25.307,38.818,0.41,90.24,4.23
2016-10-15 10:00,12.40,33.480,25.333,38.845,0.63,85.52,4.00
2016-10-15 11:00,12.40,33.414,25.282,38.774,0.53,87.51,4.10
2016-10-15 12:00,12.40,33.398,25.269,38.761,0.41,90.30,4.23
2016-10-15 13:00,12.40,33.431,25.295,38.793,0.54,87.46,4.10
2016-10-15 14:00,12.42,33.462,25.316,38.842,0.31,92.59,4.34
2016-10-15 15:00,12.38,33.583,25.417,38.932,0.41,90.25,4.23
2016-10-15 16:00,12.42,33.472,25.323,38.853,0.26,93.68,4.39
2016-10-15 17:00,12.41,33.440,25.299,38.815,0.66,84.72,3.97
2016-10-15 18:00,12.41,33.420,25.285,38.787,0.71,83.84,3.93
2016-10-15 19:00,12.40,33.397,25.270,38.754,0.60,86.16,4.03
2016-10-15 20:00,12.41,33.483,25.335,38.853,0.84,80.97,3.79
2016-10-15 21:00,12.38,33.580,25.414,38.932,0.48,88.59,4.15
2016-10-15 22:00,12.38,33.589,25.422,38.937,0.42,90.04,4.22
2016-10-15 23:00,12.40,33.536,25.376,38.906,0.30,92.71,4.34
2016-10-16 00:00,12.43,33.448,25.302,38.839,0.22,94.62,4.43
2016-10-16 01:00,12.42,33.476,25.326,38.859,0.24,94.06,4.40
2016-10-16 02:00,12.41,33.517,25.360,38.892,0.31,92.49,4.33
2016-10-16 03:00,12.40,33.554,25.391,38.918,0.28,93.26,4.37
2016-10-16 04:00,12.40,33.532,25.373,38.899,0.47,88.83,4.16
2016-10-16 05:00,12.42,33.475,25.327,38.854,0.41,90.28,4.23
2016-10-16 06:00,12.40,33.497,25.347,38.857,0.50,88.36,4.14
2016-10-16 07:00,12.40,33.489,25.340,38.856,0.62,85.72,4.01
2016-10-16 08:00,12.38,33.491,25.345,38.839,0.43,89.71,4.20
2016-10-16 09:00,12.39,33.478,25.333,38.832,0.42,90.02,4.22
2016-10-16 10:00,12.39,33.476,25.333,38.827,0.36,91.39,4.28
2016-10-16 11:00,12.38,33.474,25.332,38.822,0.33,92.06,4.31
2016-10-16 12:00,12.40,33.486,25.338,38.848,0.75,82.80,3.88
2016-10-16 13:00,12.39,33.492,25.344,38.851,0.46,89.18,4.18
2016-10-16 14:00,12.36,33.478,25.340,38.805,0.23,94.37,4.42
2016-10-16 15:00,12.38,33.491,25.345,38.839,0.32,92.37,4.33
2016-10-16 16:00,12.33,33.495,25.359,38.794,0.14,96.44,4.52
2016-10-16 17:00,12.33,33.478,25.345,38.781,0.13,96.89,4.54
2016-10-16 18:00,12.37,33.440,25.307,38.777,0.27,93.44,4.38
2016-10-16 19:00,12.37,33.439,25.308,38.770,0.68,84.28,3.95
2016-10-16 20:00,12.37,33.434,25.303,38.768,0.42,90.12,4.22
2016-10-16 21:00,12.37,33.430,25.300,38.764,0.57,86.67,4.06
2016-10-16 22:00,16.00,,,,0.40,90.40,4.23
2016-10-16 23:00,12.37,33.416,25.289,38.749,0.43,89.92,4.21
2016-10-17 00:00,12.37,33.435,25.304,38.766,0.48,88.78,4.16
2016-10-17 01:00,12.37,33.435,25.304,38.765,0.36,91.35,4.28
2016-10-17 02:00,12.36,33.442,25.311,38.771,0.34,91.96,4.31
2016-10-17 03:00,12.35,33.497,25.356,38.812,0.66,84.88,3.97
2016-10-17 04:00,12.36,33.449,25.317,38.774,0.29,92.90,4.35
2016-10-17 05:00,12.36,33.442,25.311,38.770,0.29,92.94,4.35
2016-10-17 06:00,12.36,33.445,25.313,38.772,0.62,85.74,4.01
2016-10-17 07:00,12.37,33.408,25.284,38.737,0.58,86.47,4.05
2016-10-17 08:00,12.35,33.421,25.297,38.738,0.61,85.83,4.02
2016-10-17 09:00,12.34,33.443,25.316,38.752,0.49,88.49,4.14
2016-10-17 10:00,12.33,33.475,25.343,38.776,0.52,87.83,4.11
2016-10-17 11:00,12.32,33.509,25.371,38.803,0.59,86.18,4.04
2016-10-17 12:00,12.33,33.521,25.378,38.821,0.69,84.11,3.94
2016-10-17 13:00,12.35,33.465,25.331,38.782,0.55,87.07,4.08
2016-10-17 14:00,12.36,33.444,25.313,38.767,0.52,87.89,4.12
2016-10-17 15:00,12.36,33.432,25.304,38.758,0.44,89.55,4.19
2016-10-17 16:00,12.36,33.438,25.308,38.762,0.45,89.47,4.19
2016-10-17 17:00,12.33,33.468,25.337,38.768,0.21,94.94,4.45
2016-10-17 18:00,12.34,33.461,25.329,38.772,0.33,92.19,4.32
2016-10-17 19:00,16.00,,,,0.18,95.67,4.48
2016-10-17 20:00,12.34,33.455,25.325,38.762,1.45,69.53,3.26
2016-10-17 21:00,12.36,33.397,25.276,38.719,0.77,82.42,3.86
2016-10-17 22:00,12.37,33.371,25.255,38.701,0.71,83.74,3.92
2016-10-17 23:00,12.38,33.375,25.256,38.715,0.49,88.45,4.14
2016-10-18 00:00,12.38,33.396,25.272,38.739,0.45,89.39,4.19
2016-10-18 01:00,12.43,33.384,25.253,38.771,0.08,98.11,4.59
2016-10-18 02:00,12.39,33.433,25.299,38.782,0.15,96.29,4.51
2016-10-18 03:00,12.44,33.405,25.267,38.807,0.03,99.22,4.65
2016-10-18 04:00,12.36,33.435,25.305,38.764,0.61,85.96,4.03
2016-10-18 05:00,12.38,33.446,25.311,38.785,0.42,90.10,4.22
2016-10-18 06:00,12.35,33.403,25.283,38.718,0.13,96.71,4.53
2016-10-18 07:00,12.37,33.337,25.227,38.670,0.24,94.11,4.41
2016-10-18 08:00,12.38,33.356,25.241,38.696,0.75,82.91,3.88
2016-10-18 09:00,12.40,33.327,25.215,38.686,0.45,89.47,4.19
2016-10-18 10:00,12.42,33.305,25.193,38.684,0.45,89.42,4.19
2016-10-18 11:00,12.43,33.274,25.168,38.654,0.37,91.08,4.26
2016-10-18 12:00,12.43,33.283,25.174,38.670,0.42,90.00,4.21
2016-10-18 13:00,12.43,33.286,25.178,38.666,0.44,89.57,4.19
2016-10-18 14:00,12.41,33.312,25.201,38.677,0.48,88.63,4.15
2016-10-18 15:00,12.40,33.328,25.216,38.682,0.72,83.51,3.91
2016-10-18 16:00,12.40,33.329,25.217,38.683,0.38,90.91,4.26
2016-10-18 17:00,12.41,33.316,25.205,38.679,0.42,90.00,4.21
2016-10-18 18:00,12.41,33.304,25.193,38.674,0.32,92.39,4.33
2016-10-18 19:00,12.41,33.306,25.196,38.675,0.41,90.29,4.23
2016-10-18 20:00,12.41,33.302,25.194,38.664,0.96,78.61,3.68
2016-10-18 21:00,12.42,33.245,25.148,38.614,0.69,84.19,3.94
2016-10-18 22:00,12.42,33.250,25.150,38.626,0.70,83.97,3.93
2016-10-18 23:00,12.43,33.236,25.138,38.617,0.46,89.05,4.17
2016-10-19 00:00,12.43,33.234,25.136,38.614,0.59,86.30,4.04
2016-10-19 01:00,12.43,33.241,25.143,38.618,0.43,89.85,4.21
2016-10-19 02:00,12.43,33.224,25.129,38.607,0.29,93.01,4.36
2016-10-19 03:00,12.43,33.262,25.159,38.641,0.42,89.96,4.21
2016-10-19 04:00,12.41,33.277,25.174,38.640,0.31,92.65,4.34
2016-10-19 05:00,12.43,33.256,25.153,38.639,0.35,91.51,4.29
2016-10-19 06:00,12.41,33.276,25.173,38.643,0.35,91.68,4.29
2016-10-19 07:00,12.40,33.270,25.170,38.626,0.27,93.48,4.38
2016-10-19 08:00,12.42,33.250,25.151,38.620,0.38,90.87,4.26
2016-10-19 09:00,12.44,33.226,25.130,38.612,0.47,88.92,4.16
2016-10-19 10:00,12.44,33.224,25.127,38.613,0.53,87.69,4.11
2016-10-19 11:00,12.45,33.219,25.122,38.614,0.67,84.59,3.96
2016-10-19 12:00,12.45,33.211,25.115,38.608,0.46,89.20,4.18
2016-10-19 13:00,12.45,33.207,25.112,38.603,0.46,89.13,4.17
2016-10-19 14:00,12.43,33.221,25.127,38.600,0.30,92.71,4.34
2016-10-19 15:00,12.42,33.232,25.137,38.605,0.30,92.76,4.34
2016-10-19 16:00,12.40,33.259,25.162,38.617,0.45,89.25,4.18
2016-10-19 17:00,12.40,33.271,25.171,38.625,0.53,87.63,4.10
2016-10-19 18:00,12.41,33.257,25.159,38.618,0.32,92.21,4.32
2016-10-19 19:00,12.40,33.258,25.160,38.617,0.39,90.69,4.25
2016-10-19 20:00,12.41,33.245,25.148,38.611,0.41,90.33,4.23
2016-10-19 21:00,12.43,33.218,25.125,38.594,0.26,93.79,4.39
2016-10-19 22:00,12.42,33.224,25.130,38.599,0.42,90.06,4.22
2016-10-19 23:00,12.45,33.199,25.107,38.594,0.44,89.55,4.19
2016-10-20 00:00,12.44,33.198,25.106,38.592,0.50,88.25,4.13
2016-10-20 01:00,12.45,33.182,25.091,38.584,0.42,89.99,4.21
2016-10-20 02:00,12.46,33.179,25.089,38.585,0.44,89.52,4.19
2016-10-20 03:00,12.42,33.233,25.138,38.602,0.49,88.45,4.14
2016-10-20 04:00,12.43,33.207,25.116,38.587,0.24,94.08,4.41
2016-10-20 05:00,12.43,33.223,25.129,38.600,0.34,91.86,4.30
2016-10-20 06:00,12.44,33.205,25.113,38.593,0.33,92.10,4.31
2016-10-20 07:00,12.43,33.224,25.130,38.600,0.42,90.07,4.22
2016-10-20 08:00,12.42,33.219,25.126,38.594,0.37,91.16,4.27
2016-10-20 09:00,12.44,33.187,25.099,38.573,0.22,94.57,4.43
2016-10-20 10:00,12.44,33.188,25.099,38.576,0.21,94.89,4.44
2016-10-20 11:00,12.46,33.183,25.092,38.586,0.26,93.67,4.39
2016-10-20 12:00,12.45,33.192,25.100,38.588,0.32,92.23,4.32
2016-10-20 13:00,12.45,33.194,25.102,38.589,0.55,87.08,4.08
2016-10-20 14:00,12.47,33.159,25.070,38.577,0.30,92.70,4.34
2016-10-20 15:00,12.49,33.153,25.062,38.584,0.39,90.70,4.25
2016-10-20 16:00,12.42,33.226,25.133,38.597,0.62,85.55,4.01
2016-10-20 17:00,12.45,33.190,25.099,38.584,0.29,93.05,4.36
2016-10-20 18:00,12.44,33.198,25.106,38.589,0.44,89.63,4.20
2016-10-20 19:00,12.46,33.176,25.086,38.583,0.30,92.68,4.34
2016-10-20 20:00,12.45,33.188,25.097,38.586,0.38,90.82,4.25
2016-10-20 21:00,12.47,33.169,25.078,38.583,0.30,92.82,4.35
2016-10-20 22:00,12.44,33.198,25.107,38.585,0.48,88.79,4.16
2016-10-20 23:00,12.45,33.178,25.090,38.573,0.40,90.46,4.24
2016-10-21 00:00,12.45,33.178,25.090,38.572,0.51,88.07,4.12
2016-10-21 01:00,16.00,,,,0.42,90.03,4.22
2016-10-21 02:00,12.46,33.167,25.079,38.571,0.41,90.30,4.23
2016-10-21 03:00,12.46,33.167,25.079,38.573,0.36,91.40,4.28
2016-10-21 04:00,12.45,33.174,25.086,38.575,0.34,91.79,4.30
2016-10-21 05:00,12.45,33.186,25.096,38.581,0.35,91.53,4.29
2016-10-21 06:00,12.45,33.185,25.095,38.584,0.50,88.20,4.13
2016-10-21 07:00,12.46,33.174,25.083,38.584,0.44,89.68,4.20
2016-10-21 08:00,12.44,33.193,25.102,38.586,0.50,88.31,4.14
2016-10-21 09:00,12.45,33.183,25.094,38.579,0.29,93.02,4.36
2016-10-21 10:00,12.44,33.184,25.095,38.574,0.40,90.40,4.23
2016-10-21 11:00,12.46,33.166,25.079,38.568,0.41,90.25,4.23
2016-10-21 12:00,12.45,33.163,25.077,38.563,0.52,87.84,4.11
2016-10-21 13:00,12.47,33.146,25.061,38.559,0.36,91.41,4.28
2016-10-21 14:00,12.47,33.141,25.056,38.559,0.43,89.77,4.20
2016-10-21 15:00,12.48,33.139,25.055,38.558,0.39,90.81,4.25
2016-10-21 16:00,12.47,33.146,25.061,38.559,0.42,89.99,4.21
2016-10-21 17:00,12.45,33.160,25.074,38.561,0.48,88.77,4.16
2016-10-21 18:00,12.45,33.173,25.085,38.570,0.40,90.47,4.24
2016-10-21 19:00,12.44,33.185,25.096,38.575,0.55,87.18,4.08
2016-10-21 20:00,12.45,33.171,25.084,38.569,0.34,91.82,4.30
2016-10-21 21:00,12.46,33.163,25.076,38.566,0.35,91.73,4.30
2016-10-21 22:00,12.46,33.156,25.069,38.564,0.27,93.39,4.37
2016-10-21 23:00,12.47,33.140,25.056,38.556,0.18,95.67,4.48
2016-10-22 00:00,12.46,33.157,25.072,38.561,0.54,87.38,4.09
2016-10-22 01:00,12.47,33.148,25.063,38.560,0.49,88.40,4.14
2016-10-22 02:00,12.47,33.144,25.059,38.559,0.44,89.55,4.19
2016-10-22 03:00,12.48,33.137,25.053,38.557,0.38,90.91,4.26
2016-10-22 04:00,12.48,33.132,25.048,38.555,0.32,92.29,4.32
2016-10-22 05:00,12.48,33.133,25.049,38.556,0.33,92.17,4.32
2016-10-22 06:00,12.48,33.130,25.046,38.557,0.30,92.85,4.35
2016-10-22 07:00,12.48,33.133,25.048,38.558,0.44,89.65,4.20
2016-10-22 08:00,12.48,33.135,25.050,38.557,0.34,91.85,4.30
2016-10-22 09:00,12.48,33.135,25.050,38.556,0.36,91.47,4.28
2016-10-22 10:00,12.47,33.147,25.061,38.563,0.38,91.02,4.26
2016-10-22 11:00,12.50,33.156,25.062,38.598,0.43,89.86,4.21
2016-10-22 12:00,12.56,33.208,25.092,38.705,0.37,91.06,4.26
2016-10-22 13:00,12.56,33.234,25.113,38.731,0.77,82.42,3.86
2016-10-22 14:00,12.55,33.258,25.132,38.753,0.48,88.62,4.15
2016-10-22 15:00,12.55,33.258,25.133,38.747,0.57,86.74,4.06
2016-10-22 16:00,12.55,33.248,25.124,38.744,0.53,87.58,4.10
2016-10-22 17:00,12.55,33.236,25.115,38.726,0.60,86.13,4.03
2016-10-22 18:00,12.45,33.223,25.123,38.627,0.32,92.31,4.32
2016-10-22 19:00,12.53,33.256,25.135,38.731,0.47,88.86,4.16
2016-10-22 20:00,12.53,33.208,25.097,38.681,0.31,92.45,4.33
2016-10-22 21:00,12.52,33.255,25.135,38.724,0.43,89.80,4.21
2016-10-22 22:00,12.45,33.223,25.124,38.624,0.30,92.80,4.35
2016-10-22 23:00,12.53,33.233,25.115,38.711,0.35,91.59,4.29
2016-10-23 00:00,12.55,33.252,25.128,38.743,0.73,83.35,3.90
2016-10-23 01:00,12.53,33.241,25.122,38.720,0.76,82.66,3.87
2016-10-23 02:00,12.53,33.229,25.113,38.703,0.58,86.46,4.05
2016-10-23 03:00,12.53,33.231,25.116,38.702,0.60,86.06,4.03
2016-10-23 04:00,12.52,33.216,25.106,38.681,0.53,87.67,4.11
2016-10-23 05:00,12.52,33.221,25.109,38.689,0.47,88.97,4.17
2016-10-23 06:00,12.49,33.213,25.109,38.651,0.44,89.62,4.20
2016-10-23 07:00,12.51,33.221,25.110,38.678,0.46,89.21,4.18
2016-10-23 08:00,12.51,33.223,25.113,38.677,0.56,87.01,4.07
2016-10-23 09:00,12.51,33.225,25.115,38.678,0.57,86.78,4.06
2016-10-23 10:00,12.49,33.223,25.116,38.664,0.56,87.04,4.08
2016-10-23 11:00,12.49,33.220,25.114,38.654,0.49,88.51,4.14
2016-10-23 12:00,12.46,33.203,25.107,38.608,0.43,89.79,4.20
2016-10-23 13:00,12.46,33.196,25.101,38.602,0.46,89.15,4.17
2016-10-23 14:00,12.45,33.189,25.097,38.591,0.39,90.71,4.25
2016-10-23 15:00,12.45,33.189,25.097,38.591,0.38,90.93,4.26
2016-10-23 16:00,12.45,33.195,25.103,38.591,0.40,90.47,4.24
2016-10-23 17:00,12.45,33.204,25.108,38.607,0.36,91.42,4.28
2016-10-23 18:00,12.45,33.204,25.110,38.603,0.39,90.75,4.25
2016-10-23 19:00,12.41,33.208,25.120,38.572,0.42,90.03,4.22
2016-10-23 20:00,12.40,33.216,25.128,38.571,0.52,87.77,4.11
2016-10-23 21:00,12.40,33.217,25.130,38.565,0.32,92.30,4.32
2016-10-23 22:00,12.39,33.218,25.131,38.566,0.49,88.55,4.15
2016-10-23 23:00,12.39,33.220,25.133,38.566,0.50,88.14,4.13
2016-10-24 00:00,12.39,33.230,25.141,38.575,0.58,86.50,4.05
2016-10-24 01:00,12.39,33.215,25.130,38.559,0.42,90.11,4.22
2016-10-24 02:00,12.36,33.267,25.176,38.581,0.57,86.78,4.06
2016-10-24 03:00,12.39,33.217,25.132,38.559,0.37,91.14,4.27
2016-10-24 04:00,12.38,33.244,25.153,38.583,0.53,87.52,4.10
2016-10-24 05:00,12.33,33.318,25.222,38.607,0.98,78.20,3.66
2016-10-24 06:00,12.28,33.345,25.251,38.596,1.26,72.94,3.42
2016-10-24 07:00,12.40,33.240,25.146,38.599,0.25,93.97,4.40
2016-10-24 08:00,12.39,33.256,25.162,38.598,0.31,92.65,4.34
2016-10-24 09:00,12.34,33.298,25.204,38.595,0.57,86.75,4.06
2016-10-24 10:00,12.29,33.323,25.232,38.580,0.61,85.80,4.02
2016-10-24 11:00,12.23,33.372,25.282,38.570,0.75,82.83,3.88
2016-10-24 12:00,12.03,33.541,25.451,38.561,0.89,80.01,3.75
2016-10-24 13:00,12.03,33.549,25.457,38.571,0.74,83.09,3.89
2016-10-24 14:00,12.02,33.560,25.468,38.570,0.64,85.30,3.99
2016-10-24 15:00,12.01,33.557,25.467,38.566,0.62,85.66,4.01
2016-10-24 16:00,12.06,33.510,25.420,38.563,0.61,85.76,4.02
2016-10-24 17:00,12.07,33.472,25.389,38.533,0.53,87.61,4.10
2016-10-24 18:00,12.24,33.351,25.264,38.561,0.43,89.83,4.21
2016-10-24 19:00,12.40,33.224,25.134,38.578,0.29,93.08,4.36
2016-10-24 20:00,12.35,33.258,25.170,38.570,0.29,93.05,4.36
2016-10-24 21:00,12.05,33.478,25.399,38.515,0.98,78.21,3.66
2016-10-24 22:00,12.29,33.309,25.223,38.561,0.44,89.55,4.19
2016-10-24 23:00,12.23,33.348,25.263,38.549,0.60,86.01,4.03
2016-10-25 00:00,12.02,33.500,25.422,38.509,0.70,83.99,3.93
2016-10-25 01:00,11.81,33.650,25.577,38.469,0.97,78.41,3.67
2016-10-25 02:00,11.82,33.656,25.579,38.489,0.86,80.62,3.78
2016-10-25 03:00,11.88,33.605,25.528,38.493,0.60,86.03,4.03
2016-10-25 04:00,11.84,33.655,25.575,38.503,0.59,86.34,4.04
2016-10-25 05:00,11.95,33.551,25.474,38.500,0.45,89.35,4.18
2016-10-25 06:00,12.10,33.440,25.359,38.524,0.38,90.96,4.26
2016-10-25 07:00,12.18,33.385,25.302,38.539,0.36,91.38,4.28
2016-10-25 08:00,11.95,33.540,25.464,38.493,0.99,78.00,3.65
2016-10-25 09:00,11.96,33.535,25.460,38.493,1.09,76.14,3.57
2016-10-25 10:00,12.10,33.439,25.359,38.522,0.47,88.92,4.16
2016-10-25 11:00,12.23,33.352,25.267,38.549,0.44,89.57,4.19
2016-10-25 12:00,12.08,33.454,25.374,38.521,0.49,88.52,4.15
2016-10-25 13:00,11.91,33.612,25.527,38.530,0.75,82.96,3.88
2016-10-25 14:00,11.93,33.604,25.519,38.536,0.68,84.34,3.95
2016-10-25 15:00,11.94,33.603,25.517,38.542,0.64,85.19,3.99
2016-10-25 16:00,11.90,33.629,25.543,38.539,0.76,82.63,3.87
2016-10-25 17:00,11.93,33.616,25.529,38.544,0.64,85.24,3.99
2016-10-25 18:00,11.89,33.634,25.548,38.533,0.67,84.55,3.96
2016-10-25 19:00,12.01,33.525,25.442,38.531,0.35,91.67,4.29
2016-10-25 20:00,12.16,33.402,25.319,38.538,0.34,91.89,4.30
2016-10-25 21:00,11.98,33.549,25.467,38.523,0.87,80.37,3.76
2016-10-25 22:00,11.97,33.561,25.477,38.533,0.92,79.52,3.72
2016-10-25 23:00,12.13,33.441,25.354,38.556,0.67,84.62,3.96
2016-10-26 00:00,12.21,33.388,25.298,38.572,0.45,89.45,4.19
2016-10-26 01:00,11.91,33.615,25.530,38.533,0.70,83.93,3.93
2016-10-26 02:00,11.95,33.592,25.506,38.541,0.65,85.01,3.98